Location: Chuathbaluk
(61.5726°N, 159.2454°W)
Time: 12:34:44
(UTC+00:00)

XW-2F - Pass Details

Date: 20 January 2021
Orbit: 500 x 520 km, 97.5° (Epoch: 01 March)

Event Time Altitude Azimuth Distance (km) Brightness Sun altitude
Rises 17:38:27 0° 15° (NNE) 2,660 ? -11.7°
Reaches altitude 10° 17:40:35 10° 12° (NNE) 1,770 ? -11.5°
Maximum altitude 17:44:20 60° 293° (WNW) 607 ? -11.0°
Drops below altitude 10° 17:48:05 10° 213° (SSW) 1,761 ? -10.6°
Sets 17:50:12 0° 210° (SSW) 2,646 ? -10.4°
